GW2011 Weather Reports


Display with metric or nautical units.
time (UTC)temp
F
wind
direction
speed
MPH
gust
MPH
rain 1hr
in
rain 24hr
in
rain mn
in
humidity
%
barometer
mb
20260903135519 72 88 1.0 3.0 0.00 0.00 0.00 88 1006.4
20260903135019 72 91 1.0 4.0 0.00 0.00 0.00 88 1006.6
20260903134547 72 90 1.0 4.0 0.00 0.00 0.00 88 1006.5
20260903134021 71 92 1.0 6.0 0.00 0.00 0.00 89 1006.6
20260903133523 71 88 1.0 6.0 0.00 0.00 0.00 88 1006.6
20260903133038 71 94 1.0 6.0 0.00 0.00 0.00 89 1006.5
20260903132519 71 146 2.0 6.0 0.00 0.00 0.00 89 1006.8
20260903132020 71 94 2.0 6.0 0.00 0.00 0.00 88 1007.0
20260903131538 71 86 2.0 4.0 0.00 0.00 0.00 88 1007.0
20260903131020 71 105 2.0 4.0 0.00 0.00 0.00 88 1007.1
20260903130517 71 71 1.0 4.0 0.00 0.00 0.00 88 1007.0
20260903130039 70 88 1.0 4.0 0.00 0.00 0.00 88 1006.9
20260903125519 70 65 1.0 4.0 0.00 0.00 0.00 88 1007.1
20260903125016 70 98 1.0 4.0 0.00 0.00 0.00 88 1007.1
20260903124538 70 98 1.0 4.0 0.00 0.00 0.00 88 1007.0
20260903124017 70 35 1.0 3.0 0.00 0.00 0.00 87 1006.9
20260903123522 70 71 1.0 3.0 0.00 0.00 0.00 88 1006.9
20260903123034 70 84 1.0 4.0 0.00 0.00 0.00 88 1006.8
20260903122520 70 78 1.0 4.0 0.00 0.00 0.00 88 1006.9
20260903122020 70 111 1.0 4.0 0.00 0.00 0.00 88 1006.9
20260903121536 70 103 1.0 4.0 0.00 0.00 0.00 88 1006.9
20260903121019 70 91 1.0 4.0 0.00 0.00 0.00 88 1006.9
20260903120519 70 80 1.0 3.0 0.00 0.00 0.00 88 1007.0
20260903120039 70 78 1.0 2.0 0.00 0.00 0.00 87 1006.7
20260903115518 70 61 0.0 3.0 0.00 0.00 0.00 87 1006.8
20260903115018 69 32 0.0 3.0 0.00 0.00 0.00 87 1006.8
20260903114536 70 0 0.0 2.0 0.00 0.00 0.00 86 1006.8
20260903114021 70 39 0.0 3.0 0.00 0.00 0.00 86 1006.9
20260903113520 70 39 1.0 3.0 0.00 0.00 0.00 86 1006.7
20260903113036 70 70 1.0 2.0 0.00 0.00 0.00 86 1006.8
20260903112525 70 0 0.0 3.0 0.00 0.00 0.00 86 1006.8
20260903112020 70 0 0.0 3.0 0.00 0.00 0.00 86 1006.8
20260903111536 70 0 0.0 3.0 0.00 0.00 0.00 86 1006.7
20260903111019 70 58 1.0 3.0 0.00 0.00 0.00 87 1006.8
20260903110522 70 122 1.0 4.0 0.00 0.00 0.00 87 1006.5
20260903110037 70 0 1.0 4.0 0.00 0.00 0.00 86 1006.6
20260903105519 70 32 1.0 4.0 0.00 0.00 0.00 86 1006.6
20260903105019 71 84 1.0 4.0 0.00 0.00 0.00 86 1006.8
20260903104537 71 82 1.0 3.0 0.00 0.00 0.00 86 1006.8
20260903104018 71 57 1.0 3.0 0.00 0.00 0.00 86 1006.8
20260903103520 71 107 1.0 3.0 0.00 0.00 0.00 86 1006.8
20260903103037 71 93 0.0 3.0 0.00 0.00 0.00 85 1006.9
20260903102521 71 113 1.0 3.0 0.00 0.00 0.00 86 1006.8
20260903102019 71 90 1.0 3.0 0.00 0.00 0.00 85 1006.6
20260903101539 71 0 1.0 3.0 0.00 0.00 0.00 85 1006.6
20260903101018 71 90 1.0 3.0 0.00 0.00 0.00 85 1006.8
20260903100518 71 78 1.0 3.0 0.00 0.00 0.00 85 1006.8
20260903100038 71 106 1.0 4.0 0.00 0.00 0.00 84 1006.8
20260903095524 71 98 1.0 4.0 0.00 0.00 0.00 84 1007.0
20260903095021 71 89 1.0 3.0 0.00 0.00 0.00 84 1006.9
20260903094541 71 98 0.0 3.0 0.00 0.00 0.00 84 1007.1
20260903094018 71 88 1.0 3.0 0.00 0.00 0.00 84 1007.0
20260903093518 71 74 1.0 2.0 0.00 0.00 0.00 84 1007.0
20260903093051 71 68 0.0 2.0 0.00 0.00 0.00 83 1007.0
20260903092522 71 0 0.0 2.0 0.00 0.00 0.00 82 1007.0
20260903092021 71 307 0.0 2.0 0.00 0.00 0.00 82 1006.9
20260903091536 71 78 1.0 3.0 0.00 0.00 0.00 83 1006.8
20260903091018 71 78 1.0 3.0 0.00 0.00 0.00 83 1006.9
20260903090518 71 0 1.0 3.0 0.00 0.00 0.00 83 1006.9
20260903090037 71 78 0.0 3.0 0.00 0.00 0.00 83 1006.8
20260903085520 71 0 1.0 3.0 0.00 0.00 0.00 83 1007.1
20260903085020 71 94 1.0 3.0 0.00 0.00 0.00 83 1007.0
20260903084536 71 102 1.0 3.0 0.00 0.00 0.00 82 1007.2
20260903084018 71 94 0.0 3.0 0.00 0.00 0.00 81 1007.2
20260903083518 71 95 1.0 3.0 0.00 0.00 0.00 82 1007.1
20260903083034 71 130 0.0 2.0 0.00 0.00 0.00 81 1007.1
20260903082520 71 47 0.0 2.0 0.00 0.00 0.00 80 1007.2
20260903082020 71 96 0.0 3.0 0.00 0.00 0.00 80 1007.2
20260903081543 72 0 1.0 3.0 0.00 0.00 0.00 81 1007.0
20260903081017 72 65 1.0 3.0 0.00 0.00 0.00 80 1007.1
20260903080520 72 0 1.0 2.0 0.00 0.00 0.00 80 1007.0
20260903080037 72 72 0.0 2.0 0.00 0.00 0.00 79 1007.1
20260903075523 72 0 0.0 2.0 0.00 0.00 0.00 79 1007.2
20260903075019 72 0 0.0 3.0 0.00 0.00 0.00 79 1007.3
20260903074536 72 66 0.0 3.0 0.00 0.00 0.00 80 1007.1
20260903074019 72 69 0.0 3.0 0.00 0.00 0.00 78 1007.3
20260903073517 72 94 0.0 3.0 0.00 0.00 0.00 77 1007.4
20260903073036 73 85 1.0 3.0 0.00 0.00 0.00 78 1007.4
20260903072518 73 78 1.0 3.0 0.00 0.00 0.00 78 1007.4
20260903072019 73 96 1.0 3.0 0.00 0.00 0.00 77 1007.4
20260903071538 73 98 1.0 3.0 0.00 0.00 0.00 77 1007.3
20260903071020 73 113 1.0 4.0 0.00 0.00 0.00 77 1007.3
20260903070519 73 28 1.0 4.0 0.00 0.00 0.00 76 1007.5
20260903070041 73 84 1.0 3.0 0.00 0.00 0.00 76 1007.5
20260903065520 73 105 1.0 3.0 0.00 0.00 0.00 75 1007.5
20260903065020 73 113 0.0 2.0 0.00 0.00 0.00 76 1007.7
20260903064538 73 32 0.0 2.0 0.00 0.00 0.00 75 1007.7
20260903064021 73 82 1.0 3.0 0.00 0.00 0.00 76 1007.8
20260903063520 73 82 1.0 3.0 0.00 0.00 0.00 75 1007.8
20260903063040 73 0 0.0 4.0 0.00 0.00 0.00 74 1007.8
20260903062518 73 88 1.0 4.0 0.00 0.00 0.00 75 1008.0
20260903062018 73 78 1.0 3.0 0.00 0.00 0.00 74 1007.9
20260903061539 73 91 1.0 3.0 0.00 0.00 0.00 76 1007.8
20260903061022 73 22 0.0 2.0 0.00 0.00 0.00 72 1007.9
20260903060519 73 129 0.0 2.0 0.00 0.00 0.00 72 1007.9
20260903060039 74 0 1.0 2.0 0.00 0.00 0.00 72 1007.9
20260903055522 74 0 0.0 2.0 0.00 0.00 0.00 71 1008.0
20260903055019 74 0 0.0 3.0 0.00 0.00 0.00 71 1008.0
20260903054541 74 61 1.0 3.0 0.00 0.00 0.00 72 1008.0
20260903054018 74 0 0.0 3.0 0.00 0.00 0.00 71 1008.0
20260903053520 74 90 0.0 3.0 0.00 0.00 0.00 70 1008.1
20260903053040 74 67 0.0 3.0 0.00 0.00 0.00 71 1008.0
20260903052519 74 94 1.0 3.0 0.00 0.00 0.00 72 1008.2
20260903052017 75 47 0.0 3.0 0.00 0.00 0.00 72 1008.1
20260903051544 75 0 1.0 3.0 0.00 0.00 0.00 71 1008.1
20260903051017 75 85 0.0 2.0 0.00 0.00 0.00 71 1008.3
20260903050524 75 288 0.0 2.0 0.00 0.00 0.00 72 1008.2
20260903050041 75 81 0.0 3.0 0.00 0.00 0.00 73 1008.2
20260903045520 75 83 1.0 3.0 0.00 0.00 0.00 74 1008.3
20260903045019 75 73 1.0 3.0 0.00 0.00 0.00 75 1008.2
20260903044538 75 63 1.0 3.0 0.00 0.00 0.00 74 1008.3
20260903044019 75 80 1.0 3.0 0.00 0.00 0.00 73 1008.2
20260903043517 75 0 0.0 2.0 0.00 0.00 0.00 72 1008.4
20260903043041 75 0 0.0 2.0 0.00 0.00 0.00 72 1008.4
20260903042518 75 0 0.0 2.0 0.00 0.00 0.00 72 1008.3
20260903042019 75 0 0.0 2.0 0.00 0.00 0.00 71 1008.5
20260903041538 75 203 0.0 2.0 0.00 0.00 0.00 72 1008.5
20260903041020 75 33 0.0 3.0 0.00 0.00 0.00 72 1008.5
20260903040519 75 30 0.0 3.0 0.00 0.00 0.00 72 1008.6
20260903040042 75 0 1.0 3.0 0.00 0.00 0.00 72 1008.6
20260903035519 75 103 0.0 2.0 0.00 0.00 0.00 73 1008.6
20260903035017 75 98 0.0 2.0 0.00 0.00 0.00 74 1008.6
20260903034541 75 0 0.0 3.0 0.00 0.00 0.00 73 1008.6
20260903034020 75 102 0.0 3.0 0.00 0.00 0.00 73 1008.8
20260903033519 75 102 1.0 3.0 0.00 0.00 0.00 74 1008.7
20260903033039 75 0 0.0 2.0 0.00 0.00 0.00 74 1008.7
20260903032518 75 56 0.0 2.0 0.00 0.00 0.00 72 1008.5
20260903032027 75 0 1.0 2.0 0.00 0.00 0.00 71 1008.5
20260903031543 76 70 0.0 2.0 0.00 0.00 0.00 72 1008.5
20260903031018 76 65 1.0 2.0 0.00 0.00 0.00 71 1008.3
20260903030522 76 82 0.0 2.0 0.00 0.00 0.00 72 1008.4
20260903030042 76 83 0.0 2.0 0.00 0.00 0.00 71 1008.6
20260903025522 76 0 0.0 2.0 0.00 0.00 0.00 73 1008.6
20260903025020 76 96 0.0 2.0 0.00 0.00 0.00 72 1008.6
20260903024541 76 97 0.0 2.0 0.00 0.00 0.00 72 1008.5
20260903024023 76 111 0.0 2.0 0.00 0.00 0.00 72 1008.5
20260903023519 76 0 0.0 2.0 0.00 0.00 0.00 71 1008.4
20260903023057 77 0 0.0 2.0 0.00 0.00 0.00 72 1008.5
20260903022516 77 0 0.0 3.0 0.00 0.00 0.00 72 1008.4
20260903022019 77 0 0.0 3.0 0.00 0.00 0.00 72 1008.4
20260903021546 77 0 1.0 3.0 0.00 0.00 0.00 71 1008.4
20260903021020 76 0 0.0 2.0 0.00 0.00 0.00 72 1008.4
20260903020520 76 74 0.0 2.0 0.00 0.00 0.00 73 1008.3
20260903020040 76 0 0.0 2.0 0.00 0.00 0.00 75 1008.2
20260903015522 75 111 0.0 2.0 0.00 0.00 0.00 76 1008.2
20260903015018 75 0 0.0 1.0 0.00 0.00 0.00 77 1008.2
20260903014540 74 0 0.0 0.0 0.00 0.00 0.00 79 1008.1
20260903014022 74 0 0.0 0.0 0.00 0.00 0.00 79 1008.2
20260903013520 74 0 0.0 0.0 0.00 0.00 0.00 79 1008.1
20260903013039 75 0 0.0 1.0 0.00 0.00 0.00 78 1007.9
20260903012520 75 0 0.0 1.0 0.00 0.00 0.00 78 1008.0
20260903012020 75 0 0.0 1.0 0.00 0.00 0.00 77 1007.9
20260903011542 76 0 0.0 1.0 0.00 0.00 0.00 75 1008.0
20260903011017 77 0 0.0 1.0 0.00 0.00 0.00 73 1007.9
20260903010517 78 0 0.0 2.0 0.00 0.00 0.00 72 1007.7
20260903010037 79 0 0.0 3.0 0.00 0.00 0.00 71 1007.9
20260903005518 79 128 1.0 3.0 0.00 0.00 0.00 71 1007.9
20260903005018 80 128 2.0 4.0 0.00 0.00 0.00 70 1007.9
20260903004542 80 130 2.0 4.0 0.00 0.00 0.00 69 1007.9
20260903004018 80 128 2.0 6.0 0.00 0.00 0.00 67 1008.1
20260903003518 80 137 2.0 7.0 0.00 0.00 0.00 68 1008.0
20260903003036 80 126 3.0 7.0 0.00 0.00 0.00 66 1008.0
20260903002520 81 129 3.0 5.0 0.00 0.00 0.00 65 1007.9
20260903002024 81 148 3.0 7.0 0.00 0.00 0.00 66 1007.8
20260903001542 81 143 4.0 9.0 0.00 0.00 0.00 67 1007.9
20260903001018 81 127 4.0 9.0 0.00 0.00 0.00 66 1007.7
20260903000517 81 144 4.0 8.0 0.00 0.00 0.00 66 1007.8
20260903000037 81 134 4.0 8.0 0.00 0.00 0.00 63 1007.7
20260902235518 81 123 4.0 8.0 0.00 0.00 0.00 64 1007.8
20260902235018 82 145 4.0 8.0 0.00 0.00 0.00 66 1007.8
20260902234541 82 133 4.0 8.0 0.00 0.00 0.00 63 1007.7
20260902234019 82 127 4.0 8.0 0.00 0.00 0.00 61 1007.8
20260902233521 82 134 2.0 6.0 0.00 0.00 0.00 65 1007.8
20260902233040 82 125 1.0 8.0 0.00 0.00 0.00 65 1007.8
20260902232522 82 0 1.0 8.0 0.00 0.00 0.00 62 1007.6
20260902232024 82 152 0.0 2.0 0.00 0.00 0.00 65 1007.8
20260902231552 82 0 0.0 3.0 0.00 0.00 0.00 65 1007.7
20260902231020 82 128 0.0 8.0 0.00 0.00 0.00 65 1007.6
20260902230518 82 117 2.0 8.0 0.00 0.00 0.00 64 1007.8
20260902230040 82 126 1.0 5.0 0.00 0.00 0.00 65 1007.7
20260902225523 82 0 0.0 4.0 0.00 0.00 0.00 65 1007.8
20260902225018 82 134 0.0 4.0 0.00 0.00 0.00 64 1007.8
20260902224540 82 0 0.0 4.0 0.00 0.00 0.00 64 1007.8
20260902224017 82 137 1.0 4.0 0.00 0.00 0.00 65 1007.8
20260902223519 83 129 1.0 7.0 0.00 0.00 0.00 67 1007.8
20260902223036 82 0 2.0 7.0 0.00 0.00 0.00 65 1007.8
20260902222519 83 123 1.0 5.0 0.00 0.00 0.00 60 1007.9
20260902222020 83 0 0.0 2.0 0.00 0.00 0.00 66 1007.8
20260902221550 83 0 0.0 2.0 0.00 0.00 0.00 65 1007.8
20260902221020 83 159 0.0 2.0 0.00 0.00 0.00 61 1007.9
20260902220519 83 0 0.0 2.0 0.00 0.00 0.00 63 1007.9
20260902220042 83 0 0.0 2.0 0.00 0.00 0.00 63 1008.0
20260902215518 83 90 0.0 2.0 0.00 0.00 0.00 63 1008.0
20260902215025 83 0 0.0 2.0 0.00 0.00 0.00 66 1008.0
20260902214544 83 0 0.0 2.0 0.00 0.00 0.00 61 1008.1
20260902214020 83 118 0.0 2.0 0.00 0.00 0.00 60 1007.9
20260902213523 83 119 0.0 2.0 0.00 0.00 0.00 60 1008.2
20260902213048 83 0 0.0 2.0 0.00 0.00 0.00 58 1008.1
20260902212519 83 0 0.0 2.0 0.00 0.00 0.00 61 1008.2
20260902212020 84 119 0.0 2.0 0.00 0.00 0.00 59 1008.3
20260902211546 84 126 0.0 2.0 0.00 0.00 0.00 57 1008.3
20260902211022 84 128 0.0 2.0 0.00 0.00 0.00 58 1008.3
20260902210518 84 128 0.0 2.0 0.00 0.00 0.00 63 1008.5
20260902210041 84 128 0.0 2.0 0.00 0.00 0.00 61 1008.4
20260902205519 84 128 0.0 1.0 0.00 0.00 0.00 59 1008.6
20260902205019 85 0 0.0 2.0 0.00 0.00 0.00 58 1008.6
20260902204541 85 0 0.0 2.0 0.00 0.00 0.00 58 1008.6
20260902204019 85 0 0.0 2.0 0.00 0.00 0.00 60 1008.6
20260902203516 84 128 0.0 2.0 0.00 0.00 0.00 58 1008.5
20260902203038 84 128 0.0 2.0 0.00 0.00 0.00 60 1008.7
20260902202518 84 103 0.0 2.0 0.00 0.00 0.00 59 1008.5
20260902202019 84 107 1.0 2.0 0.00 0.00 0.00 57 1008.5
20260902201537 84 0 0.0 2.0 0.00 0.00 0.00 60 1008.5
20260902201019 84 107 0.0 2.0 0.00 0.00 0.00 60 1008.6
20260902200522 84 99 0.0 3.0 0.00 0.00 0.00 56 1008.7
20260902200037 84 0 0.0 3.0 0.00 0.00 0.00 62 1008.8
20260902195521 84 109 1.0 2.0 0.00 0.00 0.00 59 1008.8
20260902195017 84 109 0.0 2.0 0.00 0.00 0.00 59 1008.9
20260902194539 84 0 0.0 3.0 0.00 0.00 0.00 56 1009.0
20260902194019 84 100 1.0 3.0 0.00 0.00 0.00 58 1009.0
20260902193518 84 100 0.0 2.0 0.00 0.00 0.00 60 1009.0
20260902193051 84 100 1.0 2.0 0.00 0.00 0.00 61 1009.1
20260902192524 84 100 0.0 2.0 0.00 0.00 0.00 59 1009.2
20260902192020 83 100 1.0 2.0 0.00 0.00 0.00 61 1009.2
20260902191536 83 0 0.0 2.0 0.00 0.00 0.00 61 1009.2
20260902191020 83 98 0.0 3.0 0.00 0.00 0.00 60 1009.3
20260902190522 82 0 1.0 4.0 0.00 0.00 0.00 61 1009.3
20260902190042 82 126 1.0 8.0 0.00 0.00 0.00 57 1009.4
20260902185517 83 115 2.0 8.0 0.00 0.00 0.00 59 1009.4
20260902185021 82 82 0.0 4.0 0.00 0.00 0.00 62 1009.5
20260902184537 82 0 1.0 4.0 0.00 0.00 0.00 59 1009.5
20260902184016 82 114 1.0 3.0 0.00 0.00 0.00 59 1009.5
20260902183525 82 0 1.0 3.0 0.00 0.00 0.00 61 1009.5
20260902183035 82 104 0.0 2.0 0.00 0.00 0.00 61 1009.6
20260902182520 81 0 0.0 3.0 0.00 0.00 0.00 62 1009.7
20260902182019 81 90 1.0 4.0 0.00 0.00 0.00 63 1009.7
20260902181539 80 105 0.0 4.0 0.00 0.00 0.00 63 1009.7
20260902181020 80 128 0.0 7.0 0.00 0.00 0.00 63 1009.9
20260902180518 80 119 2.0 7.0 0.00 0.00 0.00 62 1009.8
20260902180036 80 137 1.0 4.0 0.00 0.00 0.00 64 1009.9
20260902175520 80 124 1.0 4.0 0.00 0.00 0.00 64 1009.9
20260902175020 80 0 1.0 3.0 0.00 0.00 0.00 63 1009.9
20260902174547 80 222 0.0 3.0 0.00 0.00 0.00 63 1009.9
20260902174023 80 134 1.0 3.0 0.00 0.00 0.00 59 1009.9
20260902173520 80 93 1.0 3.0 0.00 0.00 0.00 63 1009.8
20260902173037 80 96 1.0 3.0 0.00 0.00 0.00 65 1009.8
20260902172521 79 90 1.0 3.0 0.00 0.00 0.00 64 1010.0
20260902172019 79 103 1.0 4.0 0.00 0.00 0.00 65 1010.0
20260902171539 79 107 1.0 4.0 0.00 0.00 0.00 64 1010.1
20260902171017 79 0 1.0 2.0 0.00 0.00 0.00 65 1010.2
20260902170520 79 103 0.0 4.0 0.00 0.00 0.00 67 1010.3
20260902170038 79 135 1.0 4.0 0.00 0.00 0.00 66 1010.2
20260902165524 78 84 1.0 2.0 0.00 0.00 0.00 67 1010.2
20260902165020 78 81 0.0 3.0 0.00 0.00 0.00 70 1010.4
20260902164538 77 81 0.0 4.0 0.00 0.00 0.00 70 1010.3
20260902164019 77 0 0.0 4.0 0.00 0.00 0.00 68 1010.1
20260902163516 77 113 1.0 5.0 0.00 0.00 0.00 70 1009.9
20260902163037 77 135 2.0 6.0 0.00 0.00 0.00 71 1009.8
20260902162519 77 138 2.0 6.0 0.00 0.00 0.00 73 1009.8
20260902162020 76 129 0.0 3.0 0.00 0.00 0.00 74 1009.8
20260902161540 76 0 0.0 7.0 0.00 0.00 0.00 74 1009.8
20260902161018 76 113 2.0 7.0 0.00 0.00 0.00 74 1009.8
20260902160520 76 138 1.0 3.0 0.00 0.00 0.00 75 1009.6
20260902160047 76 101 1.0 3.0 0.00 0.00 0.00 75 1009.8
20260902155518 76 108 1.0 2.0 0.00 0.00 0.00 74 1010.1
20260902155018 76 100 0.0 2.0 0.00 0.00 0.00 75 1010.1
20260902154539 76 0 1.0 2.0 0.00 0.00 0.00 75 1010.2
20260902154019 76 97 1.0 3.0 0.00 0.00 0.00 76 1010.3
20260902153519 75 105 1.0 3.0 0.00 0.00 0.00 77 1010.3
20260902153037 74 130 1.0 3.0 0.00 0.00 0.00 77 1010.4
20260902152518 74 126 1.0 3.0 0.00 0.00 0.00 77 1010.6
20260902152020 74 121 1.0 3.0 0.00 0.00 0.00 78 1010.6
20260902151537 74 125 1.0 3.0 0.00 0.00 0.00 77 1010.6
20260902151019 74 125 1.0 3.0 0.00 0.00 0.00 77 1010.5
20260902150520 74 117 0.0 3.0 0.00 0.00 0.00 78 1010.3
20260902150035 73 119 1.0 3.0 0.00 0.00 0.00 79 1010.2
20260902145518 73 119 1.0 3.0 0.00 0.00 0.00 78 1010.3
20260902145023 72 121 2.0 3.0 0.00 0.00 0.00 79 1010.2
20260902144538 72 109 1.0 3.0 0.00 0.00 0.00 79 1010.4
20260902144018 71 109 0.0 2.0 0.00 0.00 0.00 80 1010.4
20260902143516 71 0 0.0 1.0 0.00 0.00 0.00 80 1010.2
20260902143037 71 0 0.0 3.0 0.00 0.00 0.00 81 1010.1
20260902142518 71 0 0.0 3.0 0.00 0.00 0.00 81 1010.0
20260902142020 70 0 0.0 3.0 0.00 0.00 0.00 80 1009.7
20260902141536 70 101 1.0 3.0 0.00 0.00 0.00 81 1009.6
20260902141018 70 0 1.0 3.0 0.00 0.00 0.00 81 1009.6
20260902140518 70 101 0.0 2.0 0.00 0.00 0.00 80 1010.0
20260902140046 70 0 0.0 2.0 0.00 0.00 0.00 79 1009.9